EST,Max TemperatureF,Mean TemperatureF,Min TemperatureF,Max Dew PointF,MeanDew PointF,Min DewpointF,Max Humidity, Mean Humidity, Min Humidity, Max Sea Level PressureIn, Mean Sea Level PressureIn, Min Sea Level PressureIn, Max VisibilityMiles, Mean VisibilityMiles, Min VisibilityMiles, Max Wind SpeedMPH, Mean Wind SpeedMPH, Max Gust SpeedMPH,PrecipitationIn, CloudCover, Events, WindDirDegrees
2013-2-1,11,5,-2,4,-4,-10,80,72,63,30.09,30.00,29.80,10,7,2,14,5,16,T,8,Snow,93
2013-2-2,12,5,-3,2,-2,-8,83,65,46,30.06,30.01,29.94,10,9,2,14,5,18,T,5,Snow,295
2013-2-3,17,9,0,10,4,-4,87,79,70,29.98,29.81,29.70,10,3,0,20,7,28,0.12,8,Snow,313
2013-2-4,12,2,-8,6,-2,-12,87,73,58,30.01,29.92,29.84,10,7,1,13,5,17,0.01,5,Snow,169
2013-2-5,19,11,3,13,5,-4,84,72,59,29.96,29.77,29.65,10,4,0,22,8,29,0.12,7,Snow,345
2013-2-6,10,3,-5,6,-2,-9,80,72,63,30.30,30.20,30.00,10,8,1,10,5,15,0.04,7,Snow,85
2013-2-7,17,14,10,10,7,5,83,75,67,30.30,30.25,30.17,10,3,1,14,8,19,0.16,8,Snow,82
2013-2-8,23,13,3,7,3,-5,73,57,41,30.42,30.31,30.20,10,10,7,13,6,16,T,3,Snow,23
2013-2-9,19,7,-6,10,-2,-10,84,76,68,30.44,30.37,30.22,10,10,10,13,6,18,T,0,,82
2013-2-10,33,23,12,27,21,9,85,77,69,30.22,29.91,29.60,10,6,0,21,11,33,0.30,8,Fog-Snow,103
2013-2-11,36,31,26,34,29,19,96,87,78,29.66,29.41,29.30,10,4,1,26,12,43,0.31,8,Rain-Snow,218
2013-2-12,28,22,15,22,19,8,81,77,73,29.88,29.81,29.69,10,6,0,20,9,28,0.03,8,Snow,276
2013-2-13,36,26,15,25,19,11,88,72,56,29.79,29.69,29.63,10,9,6,10,3,14,0.00,6,,135
2013-2-14,35,29,23,30,28,16,92,84,75,29.79,29.64,29.60,10,3,1,18,6,24,0.15,8,Snow,348
2013-2-15,23,15,7,13,7,2,84,69,53,30.10,30.00,29.81,10,7,1,16,8,22,0.05,6,Snow,333
2013-2-16,14,8,2,3,-2,-4,80,67,53,30.17,30.11,30.04,10,9,2,13,6,17,T,5,Snow,37
2013-2-17,17,6,-6,1,-4,-10,87,69,51,30.22,30.16,30.08,10,10,8,7,4,9,0.00,2,,101
2013-2-18,31,20,8,28,15,1,85,72,58,30.12,29.82,29.52,10,8,2,25,11,35,0.05,7,Snow,112
2013-2-19,33,20,7,31,22,-2,92,77,61,29.79,29.35,29.12,10,2,0,28,14,38,1.10,8,Fog-Snow,24
2013-2-20,11,6,1,1,-3,-10,76,69,62,30.33,30.07,29.77,10,8,2,21,14,29,T,5,Snow,330
2013-2-21,20,11,1,8,-1,-7,84,73,62,30.48,30.41,30.29,10,10,10,17,5,23,0.00,3,,323
2013-2-22,28,18,8,24,16,4,92,83,73,30.38,30.04,29.81,10,5,1,15,9,24,0.09,7,Rain-Snow,99
2013-2-23,32,26,20,27,24,17,92,85,78,29.83,29.77,29.73,10,4,1,12,3,16,0.24,8,Snow,165
2013-2-24,34,26,17,24,20,14,100,82,63,30.12,29.96,29.82,10,9,0,14,6,17,0.00,4,Fog,284
2013-2-25,31,25,19,24,22,19,88,79,69,30.19,30.16,30.10,10,10,7,7,4,9,0.00,8,,163
2013-2-26,33,31,28,25,22,20,85,73,61,30.19,30.08,29.89,10,10,10,15,7,22,0.00,7,,78
2013-2-27,37,33,28,27,24,21,85,75,64,29.87,29.76,29.70,10,8,1,17,11,26,0.03,7,Snow,53
2013-2-28,34,26,17,25,16,8,75,59,43,30.15,29.93,29.75,10,10,10,20,12,26,T,6,,22